PulseSat

PulseSat

MOLNIYA 1-56

Last updated on Dec. 9, 2018, 12:08 a.m. UTC

1 13890U 83019A   18342.54939301 -.00000762  00000-0  00000+0 0  9999
2 13890  63.2826 190.9063 6897778 261.9621  22.8702  1.99866262260881
UTC
Height (km)
Latitude
Longitude
Inclination
Orbital Period

Next 30 passes for location: Hong Kong

Rise time Rise Azimuth (degrees) Set time Set Azimuth (degrees) Duration Max altitude (degrees)

No matching passes for this satellites

PulseSat

PulseSat is the new satellites software and hardware trackering solution by Pulsely.
Satellite Two Line Element Set source: US Air Force Space Command

Download PulseSat for iOS
© 2017 Pulsely Limited